Time,TemperatureF,DewpointF,PressureIn,WindDirection,WindDirectionDegrees,WindSpeedMPH,WindSpeedGustMPH,Humidity,HourlyPrecipIn,Conditions,Clouds,dailyrainin,SoftwareType,DateUTC
2013-01-26 14:02:00,23.0,13.0,30.18,NNW,345,6.0,10.0,64,0.00,,,0.00,,2013-01-26 20:02:00,
2013-01-26 14:11:00,23.0,13.0,30.18,NNW,345,6.0,10.0,64,0.00,,,0.00,,2013-01-26 20:11:00,
2013-01-26 14:22:00,23.0,12.0,30.19,NNW,338,6.0,10.0,63,0.00,,,0.00,,2013-01-26 20:22:00,
2013-01-26 14:32:00,23.0,12.0,30.19,NNW,340,7.0,11.0,63,0.00,,,0.00,,2013-01-26 20:32:00,
2013-01-26 14:42:00,23.0,12.0,30.19,NNW,340,7.0,11.0,63,0.00,,,0.00,,2013-01-26 20:42:00,
2013-01-26 14:52:00,23.0,12.0,30.19,NNW,335,6.0,11.0,62,0.00,,,0.00,,2013-01-26 20:52:00,
2013-01-26 15:02:00,23.0,12.0,30.20,NNW,344,5.0,10.0,63,0.00,,,0.00,,2013-01-26 21:02:00,
2013-01-26 15:12:00,23.0,12.0,30.20,NNW,344,5.0,10.0,63,0.00,,,0.00,,2013-01-26 21:12:00,
2013-01-26 15:22:00,22.0,12.0,30.21,North,359,2.0,5.0,64,0.00,,,0.00,,2013-01-26 21:22:00,
2013-01-26 15:32:00,22.0,12.0,30.21,North,359,2.0,5.0,64,0.00,,,0.00,,2013-01-26 21:32:00,
2013-01-26 15:43:00,22.0,12.0,30.21,North,359,2.0,5.0,64,0.00,,,0.00,,2013-01-26 21:43:00,
2013-01-26 15:52:00,23.0,12.0,30.21,North,0,0.0,0.0,63,0.00,,,0.00,,2013-01-26 21:52:00,
2013-01-26 16:01:00,23.0,12.0,30.20,North,0,0.0,0.0,63,0.00,,,0.00,,2013-01-26 22:01:00,
2013-01-26 16:11:00,23.0,12.0,30.20,North,0,0.0,0.0,63,0.00,,,0.00,,2013-01-26 22:11:00,
2013-01-26 16:21:00,23.0,12.0,30.20,North,0,0.0,0.0,63,0.00,,,0.00,,2013-01-26 22:21:00,
2013-01-26 16:31:00,22.0,12.0,30.19,North,0,0.0,0.0,65,0.00,,,0.00,,2013-01-26 22:31:00,
2013-01-26 16:42:00,22.0,12.0,30.19,North,0,0.0,0.0,65,0.00,,,0.00,,2013-01-26 22:42:00,
2013-01-26 16:52:00,21.0,12.0,30.20,North,0,0.0,0.0,67,0.00,,,0.00,,2013-01-26 22:52:00,
2013-01-26 17:01:00,21.0,12.0,30.20,North,0,0.0,0.0,69,0.00,,,0.00,,2013-01-26 23:01:00,
2013-01-26 17:12:00,21.0,12.0,30.20,North,0,0.0,0.0,69,0.00,,,0.00,,2013-01-26 23:12:00,
2013-01-26 17:22:00,21.0,12.0,30.20,North,0,0.0,0.0,69,0.00,,,0.00,,2013-01-26 23:22:00,
2013-01-26 17:32:00,21.0,12.0,30.20,North,0,0.0,0.0,69,0.00,,,0.00,,2013-01-26 23:32:00,
2013-01-26 17:41:00,21.0,12.0,30.20,North,0,0.0,0.0,69,0.00,,,0.00,,2013-01-26 23:41:00,
2013-01-26 17:52:00,19.0,12.0,30.21,North,0,0.0,0.0,73,0.00,,,0.00,,2013-01-26 23:52:00,
2013-01-26 18:02:00,19.0,12.0,30.21,North,0,0.0,0.0,75,0.00,,,0.00,,2013-01-27 00:02:00,
2013-01-26 18:11:00,19.0,12.0,30.21,North,0,0.0,0.0,75,0.00,,,0.00,,2013-01-27 00:11:00,
2013-01-26 18:21:00,19.0,13.0,30.21,North,0,0.0,0.0,76,0.00,,,0.00,,2013-01-27 00:21:00,
2013-01-26 18:32:00,19.0,13.0,30.21,North,0,0.0,0.0,76,0.00,,,0.00,,2013-01-27 00:32:00,
2013-01-26 18:42:00,19.0,13.0,30.21,North,0,0.0,0.0,76,0.00,,,0.00,,2013-01-27 00:42:00,
2013-01-26 18:52:00,18.0,12.0,30.21,North,0,0.0,0.0,77,0.00,,,0.00,,2013-01-27 00:52:00,
2013-01-26 19:01:00,18.0,12.0,30.21,North,0,0.0,0.0,78,0.00,,,0.00,,2013-01-27 01:01:00,
2013-01-26 19:11:00,18.0,12.0,30.21,North,0,0.0,0.0,78,0.00,,,0.00,,2013-01-27 01:11:00,
2013-01-26 19:22:00,17.0,12.0,30.19,North,0,0.0,0.0,79,0.00,,,0.00,,2013-01-27 01:22:00,
2013-01-26 19:32:00,17.0,12.0,30.20,North,0,0.0,0.0,80,0.00,,,0.00,,2013-01-27 01:32:00,
2013-01-26 19:41:00,17.0,12.0,30.20,North,0,0.0,0.0,80,0.00,,,0.00,,2013-01-27 01:41:00,
2013-01-26 19:52:00,17.0,12.0,30.21,North,0,0.0,0.0,80,0.00,,,0.00,,2013-01-27 01:52:00,
2013-01-26 20:01:00,17.0,12.0,30.21,North,0,0.0,0.0,80,0.00,,,0.00,,2013-01-27 02:01:00,
2013-01-26 20:11:00,17.0,12.0,30.21,North,0,0.0,0.0,80,0.00,,,0.00,,2013-01-27 02:11:00,
2013-01-26 20:22:00,17.0,12.0,30.20,North,0,0.0,0.0,80,0.00,,,0.00,,2013-01-27 02:22:00,
2013-01-26 20:31:00,18.0,13.0,30.20,North,0,0.0,0.0,79,0.00,,,0.00,,2013-01-27 02:31:00,
2013-01-26 20:41:00,18.0,13.0,30.20,North,0,0.0,0.0,79,0.00,,,0.00,,2013-01-27 02:41:00,
2013-01-26 20:52:00,18.0,13.0,30.20,North,0,0.0,0.0,79,0.00,,,0.00,,2013-01-27 02:52:00,
2013-01-26 21:02:00,17.0,12.0,30.20,North,0,0.0,0.0,79,0.00,,,0.00,,2013-01-27 03:02:00,
2013-01-26 21:11:00,17.0,12.0,30.20,North,0,0.0,0.0,79,0.00,,,0.00,,2013-01-27 03:11:00,
2013-01-26 21:21:00,17.0,12.0,30.20,North,0,0.0,0.0,79,0.00,,,0.00,,2013-01-27 03:21:00,
2013-01-26 21:32:00,17.0,12.0,30.20,North,0,0.0,0.0,79,0.00,,,0.00,,2013-01-27 03:32:00,
2013-01-26 21:42:00,17.0,12.0,30.20,North,0,0.0,0.0,79,0.00,,,0.00,,2013-01-27 03:42:00,
2013-01-26 21:52:00,17.0,12.0,30.20,North,0,0.0,0.0,79,0.00,,,0.00,,2013-01-27 03:52:00,
2013-01-26 22:01:00,17.0,12.0,30.20,North,0,0.0,0.0,79,0.00,,,0.00,,2013-01-27 04:01:00,